Date String (YYYY-MM-DD hh:mm:ss) UTC,Instrument flags,Ambient pressure (hPa),Sample flow (lpm),Bypass flow (lpm),Sample temperature (°C),Ambient temperature (°C),ASC tube jacket temperature (°C),LED temperature (°C),Box temperature (°C),Sample RH (%),Span deviation,Mass concentration (μg/m³),Mass concentration (μg/m³),Mass concentration (μg/m³)
DateTimeUTC,F1_M11,P_M11,Q1_M11,Q2_M11,T1_M11,T2_M11,T3_M11,T4_M11,T5_M11,U1_M11,ZSPAN_M11,X0_M11,X2_M11,X1_M11
2021-09-10 06:00:00,,0829.9,5.00,0.00,29.6,26.6,00.0,38.6,31.0,10.2,-000.8,0032.83,0020.73,0019.37
2021-09-10 06:01:00,,0829.9,5.00,0.00,29.5,26.3,00.0,38.6,30.9,10.3,-000.1,0033.08,0020.80,0019.43
2021-09-10 06:02:00,,0829.9,5.00,0.00,29.4,26.6,00.0,38.6,30.9,10.4,0000.5,0032.35,0020.82,0019.46
2021-09-10 06:03:00,,0829.9,4.99,0.00,29.4,27.0,00.0,38.5,31.0,10.3,0000.3,0031.77,0020.86,0019.49
2021-09-10 06:04:00,,0829.9,5.01,0.00,29.4,27.3,00.0,38.5,31.0,10.2,-000.5,0031.81,0020.93,0019.56
2021-09-10 06:05:00,,0830.0,5.00,0.00,29.4,27.6,00.0,38.5,31.0,10.2,-001.3,0031.59,0020.96,0019.61
2021-09-10 06:06:00,,0829.9,5.00,0.00,29.4,27.9,00.0,38.5,31.1,10.2,-000.8,0031.43,0021.00,0019.65
2021-09-10 06:07:00,,0829.9,5.00,0.00,29.4,28.1,00.0,38.5,31.2,10.3,-000.0,0030.54,0021.01,0019.68
2021-09-10 06:08:00,,0829.9,4.99,0.00,29.5,28.2,00.0,38.5,31.2,10.2,-000.2,0029.95,0020.98,0019.68
2021-09-10 06:09:00,,0829.9,5.01,0.00,29.5,28.3,00.0,38.5,31.3,10.2,0000.2,0029.70,0020.95,0019.66
2021-09-10 06:10:00,,0829.9,5.00,0.00,29.5,28.5,00.0,38.5,31.3,10.2,0000.2,0029.77,0020.96,0019.64
2021-09-10 06:11:00,,0829.9,4.99,0.00,29.6,28.5,00.0,38.6,31.4,10.2,-000.1,0029.59,0020.97,0019.62
2021-09-10 06:12:00,,0829.9,5.00,0.00,29.6,28.6,00.0,38.6,31.4,10.3,-000.1,0029.31,0020.94,0019.58
2021-09-10 06:13:00,,0829.9,5.00,0.00,29.7,28.7,00.0,38.6,31.4,10.1,-000.1,0029.34,0020.98,0019.58
2021-09-10 06:14:00,,0829.9,5.00,0.00,29.7,28.8,00.0,38.6,31.5,10.1,0000.1,0029.34,0020.97,0019.57
2021-09-10 06:15:00,,0829.9,4.99,0.00,29.7,28.8,00.0,38.7,31.5,10.1,0000.4,0029.54,0020.98,0019.56
2021-09-10 06:16:00,,0829.9,5.01,0.00,29.7,27.6,00.0,38.7,31.2,10.1,0000.9,0029.78,0021.01,0019.57
2021-09-10 06:17:00,,0829.9,4.99,0.00,29.6,26.3,00.0,38.6,30.9,10.1,0000.7,0030.45,0021.01,0019.56
2021-09-10 06:18:00,,0830.0,5.00,0.00,29.5,26.3,00.0,38.6,30.9,10.2,0000.4,0031.24,0021.00,0019.52
2021-09-10 06:19:00,,0830.0,5.01,0.00,29.4,26.7,00.0,38.6,30.9,10.3,0000.4,0031.35,0021.00,0019.52
2021-09-10 06:20:00,,0829.8,4.99,0.00,29.4,27.1,00.0,38.5,31.0,10.3,0000.0,0031.38,0021.00,0019.53
2021-09-10 06:21:00,,0829.9,5.00,0.00,29.4,27.4,00.0,38.5,31.0,10.3,0000.5,0031.34,0020.95,0019.52
2021-09-10 06:22:00,,0829.9,5.00,0.00,29.4,27.7,00.0,38.5,31.1,10.5,0000.1,0031.24,0020.90,0019.51
2021-09-10 06:23:00,,0829.9,5.00,0.00,29.4,27.9,00.0,38.5,31.1,10.6,-000.5,0031.57,0020.87,0019.50
2021-09-10 06:24:00,,0829.8,5.01,0.00,29.5,28.1,00.0,38.5,31.2,10.5,-000.3,0032.26,0020.86,0019.48
2021-09-10 06:25:00,,0829.9,5.00,0.00,29.5,28.2,00.0,38.5,31.3,10.5,0000.0,0032.23,0020.83,0019.47
2021-09-10 06:26:00,,0829.8,4.99,0.00,29.5,28.4,00.0,38.5,31.3,10.6,-000.1,0031.87,0020.79,0019.46
2021-09-10 06:27:00,,0829.9,5.00,0.00,29.6,28.5,00.0,38.6,31.4,10.5,-000.6,0032.16,0020.81,0019.47
2021-09-10 06:28:00,,0829.8,5.01,0.00,29.6,28.6,00.0,38.6,31.4,10.4,-000.7,0032.04,0020.86,0019.51
2021-09-10 06:29:00,,0829.8,5.00,0.00,29.6,28.6,00.0,38.6,31.4,10.2,-000.8,0031.33,0020.90,0019.56
2021-09-10 06:30:00,,0830.0,5.00,0.00,29.7,28.7,00.0,38.6,31.4,10.3,-000.7,0031.33,0020.90,0019.58
2021-09-10 06:31:00,,0829.9,4.99,0.00,29.7,28.7,00.0,38.6,31.5,10.1,-000.7,0031.55,0020.91,0019.57
2021-09-10 06:32:00,,0829.8,5.01,0.00,29.7,28.8,00.0,38.7,31.5,10.1,-001.0,0031.25,0020.95,0019.59
2021-09-10 06:33:00,,0829.9,5.00,0.00,29.8,28.6,00.0,38.7,31.5,10.0,-000.7,0031.63,0020.92,0019.59
2021-09-10 06:34:00,,0829.9,5.01,0.00,29.7,26.8,00.0,38.7,31.1,09.9,-000.6,0031.23,0020.92,0019.61
2021-09-10 06:35:00,,0829.8,5.00,0.00,29.5,26.1,00.0,38.7,30.9,09.9,-000.7,0030.61,0020.91,0019.62
2021-09-10 06:36:00,,0829.8,5.00,0.00,29.4,26.4,00.0,38.6,30.9,09.9,-000.5,0030.81,0020.95,0019.62
2021-09-10 06:37:00,,0829.8,5.00,0.00,29.4,26.8,00.0,38.6,30.9,09.8,-000.4,0030.94,0020.93,0019.60
2021-09-10 06:38:00,,0829.8,5.01,0.00,29.4,27.2,00.0,38.6,31.0,09.8,-000.2,0030.93,0020.83,0019.57
2021-09-10 06:39:00,,0829.8,5.00,0.00,29.4,27.5,00.0,38.5,31.1,09.8,-000.1,0031.30,0020.78,0019.54
2021-09-10 06:40:00,,0829.8,4.99,0.00,29.4,27.8,00.0,38.5,31.1,09.7,0000.2,0032.60,0020.70,0019.49
2021-09-10 06:41:00,,0829.8,4.99,0.00,29.4,28.0,00.0,38.5,31.2,09.7,0000.5,0034.27,0020.71,0019.47
2021-09-10 06:42:00,,0829.8,5.00,0.00,29.5,28.2,00.0,38.5,31.2,09.7,0001.2,0034.20,0020.70,0019.45
2021-09-10 06:43:00,,0829.8,5.00,0.00,29.5,28.3,00.0,38.6,31.2,09.7,0001.8,0033.98,0020.64,0019.42
2021-09-10 06:44:00,,0829.8,5.00,0.00,29.5,28.4,00.0,38.6,31.3,09.8,0002.2,0033.95,0020.59,0019.36
2021-09-10 06:45:00,,0829.8,5.00,0.00,29.6,28.5,00.0,38.6,31.3,09.8,0002.6,0033.65,0020.57,0019.33
2021-09-10 06:46:00,,0829.7,5.00,0.00,29.6,28.5,00.0,38.6,31.4,09.8,0002.5,0034.28,0020.55,0019.31
2021-09-10 06:47:00,,0829.8,5.00,0.00,29.6,28.6,00.0,38.6,31.4,09.7,0002.5,0034.04,0020.48,0019.29
2021-09-10 06:48:00,,0829.8,4.98,0.00,29.7,28.7,00.0,38.6,31.4,09.7,0002.3,0034.25,0020.48,0019.30
2021-09-10 06:49:00,,0829.8,5.01,0.00,29.7,28.7,00.0,38.7,31.5,09.7,0002.6,0034.44,0020.52,0019.31
2021-09-10 06:50:00,,0829.8,4.99,0.00,29.7,28.8,00.0,38.7,31.5,09.7,0003.0,0034.26,0020.54,0019.32
2021-09-10 06:51:00,,0829.8,5.00,0.00,29.8,28.8,00.0,38.7,31.5,09.7,0003.6,0033.06,0020.51,0019.29
2021-09-10 06:52:00,,0829.8,5.01,0.00,29.8,28.2,00.0,38.7,31.4,09.7,0003.8,0031.22,0020.49,0019.29
2021-09-10 06:53:00,,0829.8,5.00,0.00,29.6,26.4,00.0,38.7,31.0,09.7,0003.8,0031.18,0020.49,0019.29
2021-09-10 06:54:00,,0829.8,5.00,0.00,29.5,26.3,00.0,38.7,30.9,09.8,0004.3,0030.95,0020.45,0019.26
2021-09-10 06:55:00,,0829.8,5.01,0.00,29.4,26.6,00.0,38.6,30.9,09.9,0004.5,0030.67,0020.51,0019.31
2021-09-10 06:56:00,,0829.8,5.01,0.00,29.4,27.0,00.0,38.6,31.0,10.0,0004.6,0030.76,0020.51,0019.31
2021-09-10 06:57:00,,0829.8,4.98,0.00,29.4,27.4,00.0,38.6,31.0,09.9,0005.0,0030.29,0020.48,0019.28
2021-09-10 06:58:00,,0829.8,5.01,0.00,29.4,27.7,00.0,38.6,31.1,09.9,0004.4,0030.77,0020.48,0019.26
2021-09-10 06:59:00,,0829.8,5.00,0.00,29.5,27.9,00.0,38.6,31.2,09.9,0004.2,0031.35,0020.46,0019.25
